This is the latest recevied weather packets stored in our database for station/object KD0RIH. If no packets are shown the sender has not sent any weather packets the latest 10 day(s).
| Time | Temp. | Humidity | Pressure | Rain* | Wind** | Luminosity | Snow |
|---|---|---|---|---|---|---|---|
| 1777982688 | 11.11° C | 54% | 1010 hPa | 0 mm | - | 19 W/m² | - |
| 1777982387 | 11.11° C | 54% | 1009.9 hPa | 0 mm | - | 18 W/m² | - |
| 1777982083 | 11.11° C | 54% | 1009.8 hPa | 0 mm | - | 20 W/m² | - |
| 1777981782 | 11.11° C | 54% | 1009.7 hPa | 0 mm | - | 21 W/m² | - |
| 1777981477 | 11.11° C | 53% | 1009.7 hPa | 0 mm | - | 18 W/m² | - |
| 1777981174 | 11.11° C | 53% | 1009.6 hPa | 0 mm | - | 18 W/m² | - |
| 1777980870 | 11.11° C | 52% | 1009.9 hPa | 0 mm | - | 10 W/m² | - |
| 1777980566 | 11.11° C | 53% | 1009.9 hPa | 0 mm | - | 6 W/m² | - |
| 1777980264 | 11.11° C | 53% | 1010.3 hPa | 0 mm | - | 4 W/m² | - |
| 1777979960 | 11.11° C | 54% | 1010.1 hPa | 0 mm | - | 2 W/m² | - |
| 1777979655 | 11.11° C | 53% | 1010.3 hPa | 0 mm | - | 1 W/m² | - |
| 1777979351 | 11.11° C | 53% | 1010.3 hPa | 0 mm | - | 1 W/m² | - |
| 1777979048 | 11.11° C | 54% | 1010.5 hPa | 0 mm | - | 0 W/m² | - |
| 1777978745 | 11.11° C | 54% | 1010.4 hPa | 0 mm | - | 0 W/m² | - |
| 1777978442 | 11.11° C | 54% | 1010.5 hPa | 0 mm | - | 0 W/m² | - |
| 1777978138 | 11.11° C | 54% | 1010.2 hPa | 0 mm | - | 0 W/m² | - |
| 1777977835 | 11.11° C | 53% | 1010.1 hPa | 0 mm | - | 0 W/m² | - |
| 1777977531 | 11.11° C | 53% | 1010 hPa | 0 mm | - | 0 W/m² | - |
| 1777977229 | 11.11° C | 54% | 1010.4 hPa | 0 mm | - | 0 W/m² | - |
| 1777976926 | 11.11° C | 54% | 1010.4 hPa | 0 mm | - | 0 W/m² | - |
| 1777976623 | 11.11° C | 53% | 1010.5 hPa | 0 mm | - | 0 W/m² | - |
| 1777976319 | 11.67° C | 53% | 1010.3 hPa | 0 mm | - | 0 W/m² | - |
| 1777976014 | 11.67° C | 52% | 1010.6 hPa | 0 mm | - | 0 W/m² | - |
| 1777975710 | 11.67° C | 52% | 1010.4 hPa | 0 mm | - | 0 W/m² | - |
| 1777975407 | 11.67° C | 52% | 1010.4 hPa | 0 mm | - | 0 W/m² | - |
* Rain latest hour (hover to see other rain measurements)
** Current wind speed in m/s (hover to see current wind gust speed)